Tracking 30696 objects as of 15-Jun-2025
HD Live streaming from Space Station
objects crossing your sky now

STARLINK-3923

Track STARLINK-3923 now!
10-day predictions
STARLINK-3923 is classified as:


NORAD ID: 52489
Int'l Code: 2022-049AQ
Perigee: 546.2 km
Apogee: 547.6 km
Inclination: 53.2 °
Period: 95.4 minutes
Semi major axis: 6917 km
RCS: Unknown
Launch date: May 6, 2022
Source: United States (US)
Launch site: AIR FORCE EASTERN TEST RANGE (AFETR)
Your satellite tracking list
Your tracking list is empty




NASA's NSSDC Master Catalog

Two Line Element Set (TLE):
1 52489U 22049AQ  25166.40841151 -.00001041  00000-0 -47316-4 0  9992
2 52489  53.2164 178.9900 0001042  79.2651 280.8458 15.08836140172069
Source of the keplerian elements: AFSPC